Location: Dodge City Community College Clyde Tombaugh Astronomy Center
(37.7756°N, 100.0412°W)
Time: 01:38:49
(UTC+00:00)

Cosmos 2228 Rocket - Visible Passes

Search period start: 30 June 2022 00:00
Search period end: 10 July 2022 00:00
Orbit: 616 x 653 km, 82.5° (Epoch: 29 June)

Date Brightness Start Highest point End Pass type
(mag) Time Alt. Az. Time Alt. Az. Time Alt. Az.
30 Jun 6.2 09:26:02 10° NE 09:27:23 11° ENE 09:28:43 10° E visible
01 Jul 5.5 09:46:20 10° NNE 09:49:55 23° ENE 09:53:30 10° SE visible
02 Jul 4.0 10:07:58 10° N 10:12:17 50° E 10:16:38 10° SSE visible
03 Jul 3.1 10:30:06 10° NNW 10:34:32 73° W 10:39:00 10° S visible
04 Jul 5.7 09:15:13 10° NNE 09:18:26 19° ENE 09:21:39 10° ESE visible
05 Jul 4.4 09:36:39 10° N 09:40:52 40° E 09:45:05 10° SSE visible
06 Jul 3.1 09:58:39 10° N 10:03:09 89° E 10:07:38 10° S visible
07 Jul 5.8 08:44:13 10° NE 08:46:57 16° ENE 08:49:40 10° ESE visible
07 Jul 3.6 10:21:06 10° NNW 10:25:18 41° W 10:29:31 10° SSW visible
08 Jul 4.7 09:05:22 10° NNE 09:09:25 32° ENE 09:13:27 10° SE visible
08 Jul 4.6 10:44:09 10° NW 10:47:20 19° W 10:50:31 10° SW visible
09 Jul 3.3 09:27:15 10° N 09:31:44 71° E 09:35:09 17° SSE visible
